User: anonymous   Login
Location: Indian Springs
(36.5700°N, 115.6700°W)
Time: 13:52:26
(UTC-07:00)
Language:

Cosmos 2278 Rocket - Orbit

View from above orbital plane
View from above orbital plane
View from above satellite
View from above satellite

Ground track
Ground track

The orbit data is extracted from the following two-line orbital elements,

1 23088U 94023B   17176.26337725 -.00000059 +00000-0 -61220-5 0  9998
2 23088 071.0012 265.1037 0001034 076.0056 284.1181 14.14660205196415
Epoch (UTC): 25 June 2017 06:19:15
Eccentricity: 0.0001034
inclination: 71.0012°
perigee height: 843 km
apogee height: 844 km
right ascension of ascending node: 265.1037°
argument of perigee: 76.0056°
revolutions per day: 14.14660205
mean anomaly at epoch: 284.1181°
orbit number at epoch: 19641

The dashed part of the orbit path shows where the satellite is in the earth's shadow,  

DLR